Regional Weather Roundup
Issued by NWS Jackson, KY

Home | Current Version | Previous Version | Graphics & Text | Print | Product List | Glossary On
Versions: 1 2 3 4 5 6 7 8 9 10 11 12 13 14 15 16 17 18 19 20 21 22 23 24 25 26 27 28 29 30 31 32 33 34 35 36 37 38 39 40 41 42 43 44 45 46 47 48 49 50
000
ASUS43 KJKL 040910
RWRJKL

EAST KENTUCKY HOURLY WEATHER ROUNDUP
NATIONAL WEATHER SERVICE JACKSON KY
500 AM EDT TUE AUG 04 2015

NOTE: "FAIR" INDICATES FEW OR NO CLOUDS BELOW 12,000 FEET WITH
NO SIGNIFICANT WEATHER AND/OR OBSTRUCTIONS TO VISIBILITY.

* THESE REPORTS ARE NOT UNDER NWS QUALITY CONTROL AND MAY NOT
  REPORT WEATHER SUCH AS PRECIPITATION AND FOG.

KYZ079-080-083-085-087-088-110-112-115-119-120-041000
...EASTERN KENTUCKY...

CITY           SKY/WX    TMP DP  RH WIND       PRES   REMARKS
JACKSON        PTCLDY    66  64  93 S3        29.98S
LONDON         PTCLDY    69  63  81 CALM      30.00R
SOMERSET*      CLEAR     70  70 100 CALM      29.99R
MONTICELLO*    PTCLDY    68  68 100 CALM      30.01R
WILLIAMSBURG*  CLEAR     70  70 100 S6        30.01R
MIDDLESBORO*   MOCLDY    70  68  93 CALM      30.03S
HAZARD APT*    SUNNY     66  66 100 CALM      29.99S
BLACK MTN*       N/A     66  50  55 SW5         N/A
PIKEVILLE APT* PTCLDY    66  64  94 S3        29.99S
BIG SANDY*     MOSUNNY   68  66  93 SW3       29.98R
MOREHEAD APT*  PTSUNNY   66  64  94 SE3       29.98S
$$

KYZ035-036-041-042-044-050-067-078-099-041000
...CENTRAL KENTUCKY...

CITY           SKY/WX    TMP DP  RH WIND       PRES   REMARKS
MT STERLING*   PTCLDY    66  64  94 SW3       29.98R
FLEMING/MASON* PTCLDY    64  63  94 CALM      29.97R FOG
DANVILLE*      CLEAR     72  70  94 CALM      29.98R
RICHMOND*      MOCLDY    73  68  83 S5        29.96S
LEXINGTON      CLEAR     69  65  86 S3        29.95S
FRANKFORT      PTCLDY    68  65  90 CALM      29.94R
$$

KYZ091>093-OHZ055-061-077-WVZ005-015-034-035-042-041000
...SOUTHERN OHIO/WEST VIRGINIA...

CITY           SKY/WX    TMP DP  RH WIND       PRES   REMARKS
COVINGTON      PTCLDY    67  65  93 CALM      29.94S
COLUMBUS       PTCLDY    63  60  90 CALM      29.93S
DAYTON         PTCLDY    63  59  87 CALM      29.96R
WILMINGTON     CLEAR     62  61  96 CALM      29.95S FOG
HUNTINGTON     PTCLDY    64  63  96 CALM      29.95R
CHARLESTON     CLEAR     66  61  84 S5        29.96R
PINEVILLE*     MOCLDY    63  63 100 MISG      30.06S
BECKLEY        PTCLDY    63  58  83 W5        30.04R
BLUEFIELD      MOCLDY    65  59  81 W6        30.07R
$$

VAZ002-007-008-TNZ017-027-036-066-071-041000
...SOUTHWEST VIRGINIA/EAST TENNESSEE...

CITY           SKY/WX    TMP DP  RH WIND       PRES   REMARKS
WISE*          MOCLDY    70  61  73 CALM      30.07S
ABINGDON*      CLOUDY    67  61  83 CALM      30.05S
BRISTOL        CLOUDY    64  62  93 CALM      30.03R
KNOXVILLE      CLEAR     69  62  78 E5        29.99R
OAK RIDGE      CLEAR     70  67  90 CALM      30.00S
CROSSVILLE     CLEAR     68  65  90 CALM      30.04S
NASHVILLE      CLEAR     74  69  85 CALM      29.97R
$$

...KEY TO REMARKS...
VSB - VISIBILITY IN MILES
WCI - WIND CHILL INDEX
HX  - HEAT INDEX

$$



USA.gov is the U.S. government's official web portal to all federal, state and local government web resources and services.